Ely, MN

3:00 PM CDT on June 26, 2017 (GMT -0500)
Ely Municipal

Weather History for KELO - June, 2012

Change the Weather History Date:

Friday, June 22, 2012

  Actual Average Record
Temperature  
Mean Temperature 60 °F -  
Max Temperature 71 °F 71 °F 84 °F (2005)
Min Temperature 48 °F 50 °F 39 °F (2004)
Degree Days  
Heating Degree Days 6    
Growing Degree Days 10 (Base 50)    
Moisture  
Dew Point 49 °F    
Average Humidity 67    
Maximum Humidity 100    
Minimum Humidity 41    
Precipitation  
Precipitation 0.00 in - - ()
Sea Level Pressure  
Sea Level Pressure 29.95 in    
Wind  
Wind Speed 3 mph (West)    
Max Wind Speed 10 mph    
Max Gust Speed 17 mph    
Visibility 10 miles    
Events Rain    
Averages and records for this station are not official NWS values.
T = Trace of Precipitation, MM = Missing Value Source: NWS Daily Summary

Daily Weather History Graph

Daily Weather History Graph

Search for Another Location

Airport or City:

Trip Planner

Search our weather history database for the weather conditions in past years. The results will help you decide how hot, cold, wet, or windy it might be!

Date:

Astronomy

Jun. 22, 2012 Rise Set
Actual Time 5:08 AM CDT 9:09 PM CDT
Civil Twilight 4:27 AM CDT 9:51 PM CDT
Nautical Twilight 3:30 AM CDT 10:48 PM CDT
Astronomical Twilight 1:55 AM CDT 12:23 AM CDT
Moon 8:21 AM CDT (6/22) 10:50 PM CDT (6/22)
Length of Visible Light 17h 23m
Length of Day
16h 01m
Waxing Crescent, 9% of the Moon is Illuminated
Jun 22
Waxing Crescent
Jun 26
First Quarter
Jul 3
Full
Jul 10
Last Quarter
Jul 18
New

Hourly Weather History & Observations

Time (CDT) Temp. Dew Point Humidity Pressure Visibility Wind Dir Wind Speed Gust Speed Precip Events Conditions
12:13 AM 55.4 °F 51.8 °F 88% 29.93 in 10.0 mi SW 4.6 mph - N/A   Clear
12:33 AM 55.4 °F 51.8 °F 88% 29.93 in 10.0 mi SW 3.5 mph - N/A   Clear
12:52 AM 53.6 °F 51.8 °F 94% 29.93 in 10.0 mi SW 4.6 mph - N/A   Clear
1:13 AM 53.6 °F 50.0 °F 88% 29.93 in 10.0 mi Calm Calm - N/A   Clear
1:33 AM 53.6 °F 50.0 °F 88% 29.93 in 10.0 mi SW 3.5 mph - N/A   Clear
1:52 AM 51.8 °F 50.0 °F 94% 29.93 in 10.0 mi SW 3.5 mph - N/A   Clear
2:13 AM 51.8 °F 50.0 °F 94% 29.93 in 10.0 mi Calm Calm - N/A   Clear
2:33 AM 50.0 °F 48.2 °F 94% 29.93 in 10.0 mi Calm Calm - N/A   Clear
2:53 AM 51.8 °F 48.2 °F 88% 29.93 in 10.0 mi Calm Calm - N/A   Clear
3:13 AM 50.0 °F 48.2 °F 94% 29.93 in 10.0 mi Calm Calm - N/A   Clear
3:32 AM 50.0 °F 48.2 °F 94% 29.94 in 10.0 mi Calm Calm - N/A   Scattered Clouds
3:53 AM 51.8 °F 48.2 °F 88% 29.94 in 10.0 mi Calm Calm - N/A   Mostly Cloudy
4:13 AM 50.0 °F 48.2 °F 94% 29.94 in 10.0 mi Calm Calm - N/A   Scattered Clouds
4:32 AM 50.0 °F 48.2 °F 94% 29.94 in 10.0 mi Calm Calm - N/A   Clear
4:53 AM 50.0 °F 48.2 °F 94% 29.94 in 10.0 mi SSW 3.5 mph - N/A   Clear
5:12 AM 48.2 °F 48.2 °F 100% 29.94 in 10.0 mi Calm Calm - N/A   Clear
5:33 AM 50.0 °F 48.2 °F 94% 29.95 in 10.0 mi SW 3.5 mph - N/A   Scattered Clouds
5:52 AM 50.0 °F 48.2 °F 94% 29.95 in 10.0 mi Calm Calm - N/A   Clear
6:12 AM 51.8 °F 50.0 °F 94% 29.95 in 10.0 mi Calm Calm - N/A   Clear
6:33 AM 51.8 °F 50.0 °F 94% 29.96 in 10.0 mi Calm Calm - N/A   Clear
6:53 AM 53.6 °F 51.8 °F 94% 29.96 in 10.0 mi Calm Calm - N/A   Clear
7:13 AM 55.4 °F 53.6 °F 94% 29.96 in 10.0 mi WSW 3.5 mph - N/A   Clear
7:32 AM 57.2 °F 53.6 °F 88% 29.96 in 10.0 mi West 4.6 mph - N/A   Clear
7:52 AM 57.2 °F 53.6 °F 88% 29.97 in 10.0 mi Calm Calm - N/A   Clear
8:13 AM 60.8 °F 51.8 °F 72% 29.97 in 10.0 mi West 3.5 mph - N/A   Clear
8:32 AM 62.6 °F 51.8 °F 68% 29.97 in 10.0 mi WNW 5.8 mph - N/A   Clear
8:52 AM 62.6 °F 51.8 °F 68% 29.97 in 10.0 mi NW 4.6 mph - N/A   Clear
9:13 AM 64.4 °F 51.8 °F 64% 29.98 in 10.0 mi WNW 3.5 mph - N/A   Scattered Clouds
9:32 AM 64.4 °F 51.8 °F 64% 29.98 in 10.0 mi WNW 5.8 mph - N/A   Scattered Clouds
9:53 AM 64.4 °F 48.2 °F 56% 29.98 in 10.0 mi NW 5.8 mph - N/A   Clear
10:13 AM 66.2 °F 48.2 °F 52% 29.98 in 10.0 mi WNW 5.8 mph - N/A   Clear
10:32 AM 66.2 °F 48.2 °F 52% 29.98 in 10.0 mi West 8.1 mph 16.1 mph N/A   Clear
10:53 AM 68.0 °F 48.2 °F 49% 29.98 in 10.0 mi WNW 8.1 mph - N/A   Clear
11:13 AM 68.0 °F 48.2 °F 49% 29.98 in 10.0 mi NW 9.2 mph - N/A   Scattered Clouds
11:33 AM 66.2 °F 48.2 °F 52% 29.98 in 10.0 mi WNW 8.1 mph - N/A   Scattered Clouds
11:52 AM 66.2 °F 48.2 °F 52% 29.98 in 10.0 mi WNW 5.8 mph - N/A   Mostly Cloudy
12:12 PM 69.8 °F 48.2 °F 46% 29.98 in 10.0 mi NW 3.5 mph - N/A   Scattered Clouds
12:33 PM 69.8 °F 48.2 °F 46% 29.98 in 10.0 mi West 10.4 mph - N/A   Scattered Clouds
12:52 PM 69.8 °F 48.2 °F 46% 29.98 in 10.0 mi WNW 8.1 mph - N/A   Scattered Clouds
1:12 PM 69.8 °F 46.4 °F 43% 29.98 in 10.0 mi NNW 6.9 mph 16.1 mph N/A   Mostly Cloudy
1:33 PM 69.8 °F 46.4 °F 43% 29.98 in 10.0 mi NNW 5.8 mph - N/A   Scattered Clouds
1:52 PM 69.8 °F 46.4 °F 43% 29.97 in 10.0 mi Calm Calm - N/A   Scattered Clouds
2:12 PM 71.6 °F 48.2 °F 43% 29.97 in 10.0 mi WNW 6.9 mph - N/A   Scattered Clouds
2:33 PM 68.0 °F 48.2 °F 49% 29.98 in 10.0 mi WSW 6.9 mph - N/A Rain Light Rain
2:52 PM 71.6 °F 48.2 °F 43% 29.97 in 10.0 mi West 9.2 mph - N/A   Scattered Clouds
3:13 PM 69.8 °F 48.2 °F 46% 29.97 in 10.0 mi WNW 8.1 mph - N/A   Clear
3:33 PM 69.8 °F 48.2 °F 46% 29.96 in 10.0 mi West 8.1 mph 17.3 mph N/A   Clear
3:52 PM 71.6 °F 48.2 °F 43% 29.96 in 10.0 mi NNW 8.1 mph - N/A   Scattered Clouds
4:13 PM 71.6 °F 46.4 °F 41% 29.95 in 10.0 mi WSW 4.6 mph - N/A   Clear
4:33 PM 69.8 °F 48.2 °F 46% 29.95 in 10.0 mi WNW 9.2 mph - N/A   Scattered Clouds
4:52 PM 71.6 °F 48.2 °F 43% 29.95 in 10.0 mi WNW 4.6 mph - N/A   Scattered Clouds
5:13 PM 71.6 °F 48.2 °F 43% 29.94 in 10.0 mi West 9.2 mph - N/A   Scattered Clouds
5:32 PM 71.6 °F 46.4 °F 41% 29.94 in 10.0 mi NW 5.8 mph - N/A   Clear
5:53 PM 71.6 °F 48.2 °F 43% 29.94 in 10.0 mi West 5.8 mph - N/A   Scattered Clouds
6:13 PM 69.8 °F 48.2 °F 46% 29.94 in 10.0 mi West 4.6 mph - N/A   Scattered Clouds
6:32 PM 71.6 °F 48.2 °F 43% 29.93 in 10.0 mi West 5.8 mph - N/A   Scattered Clouds
6:53 PM 71.6 °F 48.2 °F 43% 29.93 in 10.0 mi West 4.6 mph - N/A   Scattered Clouds
7:13 PM 71.6 °F 48.2 °F 43% 29.93 in 10.0 mi NW 4.6 mph - N/A   Scattered Clouds
7:32 PM 71.6 °F 48.2 °F 43% 29.93 in 10.0 mi WNW 4.6 mph - N/A   Mostly Cloudy
7:53 PM 69.8 °F 48.2 °F 46% 29.93 in 10.0 mi WNW 4.6 mph - N/A   Scattered Clouds
8:13 PM 68.0 °F 48.2 °F 49% 29.93 in 10.0 mi West 3.5 mph - N/A   Clear
8:32 PM 66.2 °F 46.4 °F 49% 29.93 in 10.0 mi Calm Calm - N/A   Clear
8:53 PM 64.4 °F 48.2 °F 56% 29.93 in 10.0 mi Calm Calm - N/A   Clear
9:13 PM 62.6 °F 48.2 °F 59% 29.93 in 10.0 mi Calm Calm - N/A   Clear
9:32 PM 59.0 °F 51.8 °F 77% 29.94 in 10.0 mi Calm Calm - N/A   Clear
9:53 PM 57.2 °F 50.0 °F 77% 29.95 in 10.0 mi Calm Calm - N/A   Clear
10:13 PM 57.2 °F 50.0 °F 77% 29.95 in 10.0 mi Calm Calm - N/A   Clear
10:32 PM 57.2 °F 50.0 °F 77% 29.95 in 10.0 mi Calm Calm - N/A   Clear
10:53 PM 55.4 °F 48.2 °F 77% 29.96 in 10.0 mi Calm Calm - N/A   Clear
11:13 PM 55.4 °F 50.0 °F 82% 29.96 in 10.0 mi Calm Calm - N/A   Clear
11:32 PM 53.6 °F 48.2 °F 82% 29.96 in 10.0 mi Calm Calm - N/A   Scattered Clouds
11:53 PM 53.6 °F 50.0 °F 88% 29.96 in 10.0 mi Calm Calm - N/A   Mostly Cloudy